{"data":{"norad_id":66105,"intl_designator":"2025-236V","name":"STARLINK-35561","alt_names":[],"object_type":"PAYLOAD","status":"ACTIVE","operator":null,"country":"US","launch_date":"2025-10-19","launch_site_code":"AFWTR","launch_vehicle":null,"mission":null,"orbit_class":"UNKNOWN","rcs_meters":null,"size_class":null,"mass_kg":null,"dimensions":null,"purposes":["comms"],"wikipedia_slug":null,"has_3d_model":false,"image_url":null,"decayed_at":null,"tle_current":{"epoch":"2026-09-20T07:11:31.762752Z","epoch_age_seconds":117755,"freshness":"FRESH","line1":"1 66105U 25236V   26263.29967318  .00027017  00000+0  80755-3 0  9994","line2":"2 66105  53.1592 276.8536 0001309  67.2907 292.8234 15.34412515 52723","mean_motion":15.34412515,"eccentricity":0.0001309,"inclination_deg":53.1592,"raan_deg":276.8536,"arg_perigee_deg":67.2907,"mean_anomaly_deg":292.8234,"bstar":0.00080755,"rev_number":5272,"period_min":93.846992638743,"perigee_km":461.77058212415,"apogee_km":463.56150436087,"semimajor_km":6840.8030432425,"source":"CELESTRAK","updated_at":"2026-09-21T09:00:35.804181Z"}}}